CW2927 Weather Reports


Display with metric or nautical units.
time (UTC)temp
F
wind
direction
speed
MPH
gust
MPH
rain 1hr
in
rain 24hr
in
rain mn
in
humidity
%
barometer
mb
20180225134704 28 129 8.0 14.0 0.00 0.00 0.00 70 1019.4
20180225134204 28 125 5.0 14.0 0.00 0.00 0.00 71 1019.5
20180225132704 27 130 6.0 12.0 0.00 0.00 0.00 70 1019.6
20180225132204 27 115 6.0 13.0 0.00 0.00 0.00 71 1019.8
20180225130704 27 125 3.0 12.0 0.00 0.00 0.00 70 1020.6
20180225130204 27 117 7.0 15.0 0.00 0.00 0.00 70 1020.2
20180225124703 27 121 6.0 12.0 0.00 0.02 0.00 70 1020.4
20180225124204 27 122 6.0 12.0 0.00 0.02 0.00 70 1020.6
20180225122704 26 119 7.0 14.0 0.00 0.03 0.00 70 1021.0
20180225122204 26 127 6.0 14.0 0.00 0.03 0.00 70 1021.0
20180225120704 26 115 5.0 12.0 0.00 0.03 0.00 70 1021.3
20180225120204 26 125 8.0 15.0 0.00 0.03 0.00 70 1021.4
20180225114703 25 129 4.0 10.0 0.00 0.03 0.00 69 1021.6
20180225114204 25 120 8.0 13.0 0.00 0.03 0.00 69 1021.8
20180225112703 25 116 6.0 14.0 0.00 0.03 0.00 68 1022.1
20180225112204 25 110 5.0 13.0 0.00 0.03 0.00 69 1022.0
20180225110704 25 112 5.0 9.0 0.00 0.03 0.00 69 1022.7
20180225110204 25 105 7.0 15.0 0.00 0.03 0.00 69 1022.7
20180225104704 25 114 5.0 9.0 0.00 0.03 0.00 70 1023.1
20180225104203 25 103 4.0 12.0 0.00 0.03 0.00 70 1023.2
20180225102704 25 90 3.0 10.0 0.00 0.03 0.00 70 1023.6
20180225102204 25 104 3.0 8.0 0.00 0.03 0.00 70 1023.8
20180225100704 25 104 1.0 5.0 0.00 0.03 0.00 71 1024.4
20180225100204 25 126 3.0 7.0 0.00 0.03 0.00 71 1024.4
20180225094705 25 102 1.0 5.0 0.00 0.03 0.00 72 1025.0
20180225094204 25 101 0.0 3.0 0.00 0.03 0.00 71 1025.2
20180225092704 25 101 0.0 0.0 0.00 0.03 0.00 71 1025.5
20180225092203 25 101 1.0 5.0 0.00 0.03 0.00 71 1025.6
20180225090704 25 98 1.0 5.0 0.00 0.03 0.00 70 1025.4
20180225090204 25 127 2.0 7.0 0.00 0.03 0.00 70 1025.3
20180225084703 25 122 4.0 8.0 0.00 0.03 0.00 69 1025.3
20180225084204 25 136 3.0 10.0 0.00 0.03 0.00 69 1025.3
20180225082704 24 116 1.0 5.0 0.00 0.03 0.00 69 1025.4
20180225082206 24 111 1.0 7.0 0.00 0.03 0.00 68 1025.4
20180225080704 24 121 3.0 7.0 0.00 0.04 0.00 68 1025.3
20180225080204 24 107 3.0 9.0 0.00 0.04 0.00 68 1025.1
20180225074704 24 116 3.0 7.0 0.00 0.04 0.00 69 1025.4
20180225074204 24 100 3.0 7.0 0.00 0.04 0.00 69 1025.6
20180225072703 25 101 3.0 7.0 0.00 0.04 0.00 68 1025.9
20180225072204 25 77 3.0 8.0 0.00 0.05 0.00 68 1026.1
20180225070704 25 79 2.0 7.0 0.00 0.05 0.00 67 1026.6
20180225070204 25 104 5.0 10.0 0.00 0.05 0.00 66 1026.7
20180225064705 25 99 3.0 8.0 0.00 0.05 0.00 66 1026.8
20180225064204 25 107 3.0 9.0 0.00 0.05 0.00 66 1026.8
20180225062704 26 111 3.0 7.0 0.00 0.06 0.00 65 1026.9
20180225062204 26 98 3.0 10.0 0.00 0.06 0.00 65 1026.9
20180225060703 26 112 3.0 10.0 0.00 0.06 0.00 65 1027.0
20180225060203 26 105 3.0 10.0 0.00 0.06 0.00 66 1027.1
20180225054708 26 108 3.0 8.0 0.00 0.06 0.00 67 1027.3
20180225054209 26 112 3.0 7.0 0.00 0.06 0.00 67 1027.4
20180225052708 26 103 1.0 6.0 0.00 0.07 0.00 66 1027.2
20180225052208 26 86 2.0 6.0 0.00 0.07 0.00 66 1027.4
20180225050708 26 101 3.0 6.0 0.00 0.08 0.00 67 1027.4
20180225050208 26 95 1.0 6.0 0.00 0.08 0.00 67 1027.4
20180225044708 26 73 1.0 3.0 0.00 0.08 0.08 67 1027.4
20180225044208 26 102 0.0 6.0 0.00 0.09 0.08 67 1027.4
20180225042708 27 96 1.0 5.0 0.00 0.09 0.08 66 1027.3
20180225042208 27 94 0.0 7.0 0.00 0.09 0.08 66 1027.3
20180225040709 27 94 1.0 5.0 0.00 0.09 0.08 67 1027.3
20180225040208 27 87 0.0 6.0 0.00 0.10 0.08 68 1027.3
20180225034709 27 92 2.0 5.0 0.00 0.11 0.08 69 1027.3
20180225034208 27 89 1.0 5.0 0.00 0.11 0.08 70 1027.2
20180225032708 27 71 3.0 3.0 0.00 0.11 0.08 73 1027.1
20180225032208 27 67 1.0 3.0 0.00 0.12 0.08 75 1027.0
20180225030708 27 55 0.0 0.0 0.00 0.13 0.08 77 1027.1
20180225030208 27 53 0.0 3.0 0.00 0.13 0.08 78 1026.9
20180225024708 27 312 0.0 0.0 0.00 0.13 0.08 79 1027.0
20180225024208 27 312 0.0 0.0 0.00 0.13 0.08 79 1027.1
20180225022708 28 311 0.0 0.0 0.00 0.14 0.08 78 1026.7
20180225022208 28 311 0.0 0.0 0.00 0.14 0.08 78 1026.4
20180225020708 28 310 0.0 0.0 0.00 0.15 0.08 79 1026.4
20180225020208 28 310 0.0 1.0 0.00 0.16 0.08 79 1026.4
20180225014708 28 304 0.0 0.0 0.00 0.17 0.08 79 1026.2
20180225014208 28 304 0.0 2.0 0.00 0.17 0.08 79 1026.0
20180225012708 28 304 0.0 2.0 0.00 0.17 0.08 78 1025.9
20180225012208 29 304 0.0 3.0 0.00 0.17 0.08 78 1026.1
20180225010708 29 304 1.0 3.0 0.00 0.18 0.08 78 1025.9
20180225010208 29 304 0.0 3.0 0.00 0.18 0.08 78 1025.9
20180225004708 29 304 0.0 2.0 0.00 0.19 0.08 78 1025.1
20180225004208 29 303 1.0 3.0 0.00 0.19 0.08 78 1025.1
20180225002708 29 304 0.0 0.0 0.00 0.19 0.08 78 1024.9
20180225002208 29 304 1.0 7.0 0.00 0.19 0.08 78 1024.8
20180225000709 30 288 0.0 1.0 0.00 0.19 0.08 79 1025.0
20180225000209 30 291 0.0 8.0 0.00 0.19 0.08 79 1024.9
20180224234708 30 301 0.0 0.0 0.00 0.19 0.08 78 1024.7
20180224234208 30 301 0.0 3.0 0.00 0.19 0.08 78 1024.6
20180224232708 30 302 1.0 3.0 0.00 0.19 0.08 77 1024.2
20180224232209 30 302 0.0 0.0 0.00 0.19 0.08 76 1024.1
20180224230708 31 302 0.0 0.0 0.00 0.19 0.08 75 1024.1
20180224230208 31 302 0.0 5.0 0.00 0.19 0.08 75 1024.0
20180224224708 32 302 1.0 3.0 0.00 0.19 0.08 73 1023.8
20180224224208 32 302 1.0 5.0 0.00 0.19 0.08 72 1023.9
20180224222708 33 313 0.0 0.0 0.00 0.19 0.08 71 1023.7
20180224222208 34 313 0.0 5.0 0.00 0.19 0.08 70 1023.6
20180224220708 34 315 0.0 3.0 0.00 0.19 0.08 69 1023.6
20180224220208 34 308 1.0 7.0 0.00 0.19 0.08 69 1023.4
20180224214708 35 315 1.0 5.0 0.00 0.19 0.08 68 1023.3
20180224214208 35 298 3.0 8.0 0.00 0.19 0.08 68 1023.3
20180224212708 36 337 2.0 6.0 0.00 0.19 0.08 66 1023.4
20180224212208 36 318 5.0 10.0 0.00 0.19 0.08 66 1023.3
20180224210708 36 317 7.0 12.0 0.00 0.19 0.08 65 1023.0
20180224210208 36 317 5.0 13.0 0.00 0.19 0.08 65 1022.9
20180224204708 37 302 5.0 9.0 0.00 0.19 0.08 64 1022.7
20180224204208 37 314 8.0 13.0 0.00 0.19 0.08 63 1022.8
20180224202708 38 317 5.0 10.0 0.00 0.19 0.08 63 1022.7
20180224202208 38 331 7.0 14.0 0.00 0.19 0.08 63 1022.7
20180224200708 38 313 7.0 13.0 0.00 0.19 0.08 63 1022.6
20180224200207 38 294 7.0 15.0 0.00 0.19 0.08 63 1022.6
20180224194708 38 301 10.0 15.0 0.00 0.19 0.08 63 1022.6
20180224194208 38 301 9.0 15.0 0.00 0.19 0.08 62 1022.6
20180224192708 38 304 9.0 16.0 0.00 0.19 0.08 64 1022.5
20180224192207 38 316 10.0 17.0 0.00 0.19 0.08 65 1022.5
20180224190708 38 304 7.0 12.0 0.00 0.19 0.08 65 1022.2
20180224190208 38 346 9.0 15.0 0.00 0.19 0.08 65 1022.1
20180224184708 39 321 10.0 15.0 0.00 0.19 0.08 65 1022.1
20180224184208 39 333 6.0 18.0 0.00 0.19 0.08 67 1022.0
20180224182707 38 326 9.0 13.0 0.00 0.19 0.08 67 1021.9
20180224182208 38 338 7.0 15.0 0.00 0.19 0.08 68 1021.7
20180224180708 38 339 10.0 16.0 0.00 0.19 0.08 68 1021.7
20180224180208 38 347 10.0 20.0 0.00 0.19 0.08 68 1021.7
20180224174708 38 354 6.0 10.0 0.00 0.19 0.08 70 1021.6
20180224174208 38 346 7.0 15.0 0.00 0.19 0.08 69 1021.4
20180224172708 37 338 9.0 14.0 0.00 0.19 0.08 68 1021.2
20180224172208 38 352 7.0 15.0 0.00 0.19 0.08 68 1021.1
20180224170708 38 328 9.0 13.0 0.00 0.19 0.08 69 1020.9
20180224170208 37 343 6.0 14.0 0.00 0.19 0.08 70 1020.9
20180224164709 37 341 9.0 14.0 0.00 0.19 0.08 70 1020.9
20180224164209 37 337 9.0 16.0 0.00 0.19 0.08 70 1020.9
20180224162708 37 18 7.0 13.0 0.00 0.19 0.08 71 1020.9
20180224162208 37 340 9.0 20.0 0.00 0.19 0.08 71 1020.8
20180224160708 37 346 9.0 14.0 0.00 0.19 0.08 75 1020.6
20180224160208 37 345 10.0 15.0 0.00 0.19 0.08 75 1020.7
20180224154708 37 3 6.0 12.0 0.00 0.19 0.08 76 1020.6
20180224154208 37 339 6.0 14.0 0.00 0.19 0.08 76 1020.5
20180224152708 36 340 8.0 15.0 0.00 0.19 0.08 77 1020.0
20180224152208 36 344 9.0 15.0 0.00 0.19 0.08 77 1019.9
20180224150708 36 8 8.0 13.0 0.00 0.19 0.08 80 1019.7
20180224150208 36 346 8.0 16.0 0.00 0.19 0.08 82 1019.8
20180224144708 36 345 7.0 12.0 0.00 0.19 0.08 87 1019.7
20180224144208 36 339 6.0 15.0 0.00 0.19 0.08 89 1019.7
20180224142708 36 330 8.0 12.0 0.00 0.19 0.08 93 1019.7
20180224142208 36 334 6.0 10.0 0.00 0.19 0.08 93 1019.6
20180224140708 36 295 5.0 10.0 0.00 0.19 0.08 94 1019.3
20180224140208 36 323 5.0 12.0 0.00 0.19 0.08 94 1019.2